When you browse on this site, cookies collect data to enhance your experience and personalize the content and advertising you see.
Visit our Privacy Policy to learn more. By continuing to use the site, you agree to this use of cookies and data.
  • en Suisse
  • Liste des pays
  • À 7 jours
  • Température de l'eau
  • Carte satellitaire
  • Carte météo
  • Widgets météo
  • user-avatar
    Se connecter

    Météo par heure à Oran

    Ce jour, 20 Janvier, Dimanche

    Heure Température Précipitation Vent Pression Humidité
    00:00 +12°C° 0.2 mm 7 m/s 750 mmHg 82%
    01:00 +12°C° 0.3 mm 7 m/s 750 mmHg 79%
    02:00 +12°C° 0.3 mm 7 m/s 749 mmHg 76%
    03:00 +13°C° 0.3 mm 6 m/s 748 mmHg 74%
    04:00 +11°C° 1.9 mm 6 m/s 748 mmHg 77%
    05:00 +11°C° 1.9 mm 7 m/s 748 mmHg 80%
    06:00 +11°C° 1.9 mm 7 m/s 748 mmHg 83%
    07:00 +11°C° 0.2 mm 8 m/s 748 mmHg 82%
    08:00 +12°C° 0.2 mm 10 m/s 747 mmHg 80%
    09:00 +13°C° 0.2 mm 11 m/s 747 mmHg 78%
    10:00 +13°C° 0.7 mm 12 m/s 747 mmHg 75%
    11:00 +14°C° 0.7 mm 13 m/s 747 mmHg 72%
    12:00 +14°C° 0.7 mm 15 m/s 747 mmHg 69%
    13:00 +14°C° 0.2 mm 14 m/s 746 mmHg 67%
    14:00 +14°C° 0.2 mm 14 m/s 746 mmHg 66%
    15:00 +14°C° 0.2 mm 14 m/s 746 mmHg 64%
    16:00 +14°C° 0.7 mm 13 m/s 747 mmHg 69%
    17:00 +13°C° 0.7 mm 12 m/s 747 mmHg 75%
    18:00 +12°C° 0.7 mm 11 m/s 748 mmHg 80%
    19:00 +12°C° 1.6 mm 9 m/s 749 mmHg 80%
    20:00 +11°C° 1.6 mm 8 m/s 750 mmHg 80%
    21:00 +11°C° 1.6 mm 6 m/s 750 mmHg 81%
    22:00 +12°C° 0.2 mm 5 m/s 751 mmHg 79%
    23:00 +12°C° 0.2 mm 3 m/s 751 mmHg 78%

    Demain, 21 Janvier, Lundi

    Heure Température Précipitation Vent Pression Humidité
    00:00 +12°C° 0.2 mm 2 m/s 752 mmHg 76%
    01:00 +11°C° 0.1 mm 3 m/s 752 mmHg 74%
    02:00 +11°C° 0.1 mm 3 m/s 752 mmHg 71%
    03:00 +11°C° 0.1 mm 4 m/s 752 mmHg 69%
    04:00 +11°C° 0 mm 4 m/s 752 mmHg 69%
    05:00 +11°C° 0 mm 4 m/s 752 mmHg 69%
    06:00 +11°C° 0 mm 4 m/s 753 mmHg 69%
    07:00 +11°C° 0 mm 4 m/s 753 mmHg 67%
    08:00 +12°C° 0 mm 4 m/s 753 mmHg 65%
    09:00 +12°C° 0 mm 4 m/s 754 mmHg 63%
    10:00 +12°C° 0 mm 4 m/s 754 mmHg 59%
    11:00 +13°C° 0 mm 5 m/s 754 mmHg 55%
    12:00 +13°C° 0 mm 5 m/s 754 mmHg 52%
    13:00 +13°C° 0 mm 5 m/s 754 mmHg 51%
    14:00 +13°C° 0 mm 5 m/s 754 mmHg 51%
    15:00 +13°C° 0 mm 5 m/s 754 mmHg 50%
    16:00 +12°C° 0 mm 4 m/s 754 mmHg 53%
    17:00 +11°C° 0 mm 3 m/s 754 mmHg 56%
    18:00 +10°C° 0 mm 3 m/s 754 mmHg 59%
    19:00 +10°C° 0 mm 2 m/s 755 mmHg 61%
    20:00 +10°C° 0 mm 2 m/s 755 mmHg 63%
    21:00 +10°C° 0 mm 2 m/s 755 mmHg 64%
    22:00 +10°C° 0.2 mm 3 m/s 755 mmHg 65%
    23:00 +10°C° 0.2 mm 3 m/s 755 mmHg 66%

    Après-demain, 22 Janvier, Mardi

    Heure Température Précipitation Vent Pression Humidité
    00:00 +10°C° 0.2 mm 4 m/s 755 mmHg 66%
    01:00 +10°C° 0.2 mm 4 m/s 755 mmHg 66%
    02:00 +10°C° 0.2 mm 4 m/s 755 mmHg 66%
    03:00 +9°C° 0.2 mm 5 m/s 755 mmHg 66%
    04:00 +8°C° 0 mm 4 m/s 755 mmHg 66%
    05:00 +9°C° 0 mm 3 m/s 755 mmHg 66%
    06:00 +8°C° 0 mm 3 m/s 755 mmHg 67%
    07:00 +9°C° 0 mm 3 m/s 755 mmHg 65%
    08:00 +10°C° 0 mm 4 m/s 755 mmHg 63%
    09:00 +11°C° 0 mm 4 m/s 755 mmHg 61%
    10:00 +12°C° 0 mm 5 m/s 755 mmHg 59%
    11:00 +13°C° 0 mm 6 m/s 755 mmHg 57%
    12:00 +14°C° 0 mm 7 m/s 755 mmHg 55%
    13:00 +13°C° 0 mm 8 m/s 754 mmHg 55%
    14:00 +13°C° 0 mm 9 m/s 753 mmHg 55%
    15:00 +13°C° 0 mm 10 m/s 752 mmHg 56%
    16:00 +12°C° 0 mm 10 m/s 751 mmHg 60%
    17:00 +11°C° 0 mm 11 m/s 751 mmHg 65%
    18:00 +11°C° 0 mm 11 m/s 751 mmHg 70%
    19:00 +11°C° 0 mm 11 m/s 751 mmHg 69%
    20:00 +10°C° 0 mm 12 m/s 751 mmHg 68%
    21:00 +12°C° 0 mm 12 m/s 751 mmHg 67%
    22:00 +12°C° 0.1 mm 12 m/s 751 mmHg 69%
    23:00 +10°C° 0.1 mm 12 m/s 750 mmHg 70%

    23 Janvier, Mercredi

    Heure Température Précipitation Vent Pression Humidité
    00:00 +10°C° 0.1 mm 12 m/s 750 mmHg 72%
    01:00 +10°C° 0.5 mm 12 m/s 749 mmHg 73%
    02:00 +10°C° 0.5 mm 12 m/s 749 mmHg 74%
    03:00 +10°C° 0.5 mm 13 m/s 749 mmHg 75%
    04:00 +10°C° 0.5 mm 12 m/s 749 mmHg 74%
    05:00 +11°C° 0.5 mm 11 m/s 749 mmHg 72%
    06:00 +11°C° 0.5 mm 10 m/s 749 mmHg 70%
    07:00 +11°C° 0.1 mm 10 m/s 749 mmHg 70%
    08:00 +12°C° 0.1 mm 10 m/s 749 mmHg 71%
    09:00 +12°C° 0.1 mm 9 m/s 750 mmHg 71%
    10:00 +12°C° 0 mm 11 m/s 749 mmHg 69%
    11:00 +13°C° 0 mm 13 m/s 749 mmHg 67%
    12:00 +13°C° 0 mm 15 m/s 748 mmHg 65%
    13:00 +13°C° 0 mm 15 m/s 748 mmHg 63%
    14:00 +13°C° 0 mm 15 m/s 747 mmHg 61%
    15:00 +13°C° 0 mm 16 m/s 746 mmHg 59%
    16:00 +11°C° 0 mm 15 m/s 747 mmHg 62%
    17:00 +12°C° 0 mm 14 m/s 747 mmHg 65%
    18:00 +12°C° 0 mm 12 m/s 747 mmHg 68%
    19:00 +12°C° 0 mm 12 m/s 748 mmHg 69%
    20:00 +12°C° 0 mm 13 m/s 748 mmHg 70%
    21:00 +12°C° 0 mm 13 m/s 748 mmHg 71%
    22:00 +12°C° 0 mm 13 m/s 748 mmHg 72%
    23:00 +12°C° 0 mm 13 m/s 747 mmHg 73%

    24 Janvier, Jeudi

    Heure Température Précipitation Vent Pression Humidité
    00:00 +12°C° 0 mm 14 m/s 747 mmHg 74%
    01:00 +12°C° 0 mm 14 m/s 746 mmHg 74%
    02:00 +12°C° 0 mm 14 m/s 746 mmHg 75%
    03:00 +12°C° 0 mm 13 m/s 746 mmHg 76%
    04:00 +12°C° 0 mm 13 m/s 745 mmHg 76%
    05:00 +12°C° 0 mm 12 m/s 745 mmHg 77%
    06:00 +10°C° 0 mm 12 m/s 745 mmHg 78%
    07:00 +12°C° 0.1 mm 12 m/s 745 mmHg 76%
    08:00 +12°C° 0.1 mm 13 m/s 745 mmHg 75%
    09:00 +13°C° 0.1 mm 13 m/s 746 mmHg 74%
    10:00 +13°C° 0.7 mm 13 m/s 746 mmHg 71%
    11:00 +13°C° 0.7 mm 12 m/s 746 mmHg 69%
    12:00 +14°C° 0.7 mm 12 m/s 746 mmHg 66%
    13:00 +13°C° 1.2 mm 11 m/s 746 mmHg 67%
    14:00 +12°C° 1.2 mm 10 m/s 746 mmHg 68%
    15:00 +11°C° 1.2 mm 9 m/s 746 mmHg 68%
    16:00 +11°C° 0.1 mm 8 m/s 746 mmHg 64%
    17:00 +11°C° 0.1 mm 8 m/s 747 mmHg 59%
    18:00 +11°C° 0.1 mm 7 m/s 748 mmHg 54%
    19:00 +11°C° 0 mm 7 m/s 748 mmHg 52%
    20:00 +10°C° 0 mm 7 m/s 749 mmHg 50%
    21:00 +10°C° 0 mm 8 m/s 749 mmHg 49%
    22:00 +10°C° 0 mm 7 m/s 749 mmHg 50%
    23:00 +9°C° 0 mm 7 m/s 749 mmHg 52%

    25 Janvier, Vendredi

    Heure Température Précipitation Vent Pression Humidité
    00:00 +9°C° 0 mm 7 m/s 750 mmHg 53%
    01:00 +9°C° 0 mm 7 m/s 750 mmHg 55%
    02:00 +9°C° 0 mm 7 m/s 750 mmHg 56%
    03:00 +9°C° 0 mm 7 m/s 750 mmHg 57%
    04:00 +9°C° 0 mm 8 m/s 750 mmHg 57%
    05:00 +9°C° 0 mm 8 m/s 750 mmHg 57%
    06:00 +7°C° 0 mm 9 m/s 750 mmHg 57%
    07:00 +7°C° 0 mm 9 m/s 751 mmHg 56%
    08:00 +8°C° 0 mm 9 m/s 752 mmHg 55%
    09:00 +8°C° 0 mm 9 m/s 753 mmHg 54%
    10:00 +9°C° 0 mm 8 m/s 753 mmHg 52%
    11:00 +10°C° 0 mm 8 m/s 753 mmHg 50%
    12:00 +10°C° 0 mm 7 m/s 754 mmHg 48%
    13:00 +10°C° 0 mm 6 m/s 754 mmHg 49%
    14:00 +11°C° 0 mm 4 m/s 754 mmHg 50%
    15:00 +11°C° 0 mm 3 m/s 754 mmHg 52%
    16:00 +10°C° 0 mm 3 m/s 755 mmHg 55%
    17:00 +10°C° 0 mm 2 m/s 755 mmHg 59%
    18:00 +9°C° 0 mm 2 m/s 756 mmHg 63%
    19:00 +9°C° 0 mm 1 m/s 756 mmHg 64%
    20:00 +9°C° 0 mm 1 m/s 756 mmHg 65%
    21:00 +9°C° 0 mm 1 m/s 757 mmHg 66%
    22:00 +8°C° 0 mm 1 m/s 757 mmHg 65%
    23:00 +8°C° 0 mm 1 m/s 757 mmHg 65%
    Voir plus